Precipitable_Water
0.38 0.38 0.32 0.38 0.31 0.30 0.33 0.34 0.36 0.41 0.47 0.48 0.47 0.48 0.52 0.56 0.53 0.50 0.50 0.51 0.53 0.55 0.65 0.68 0.68 0.72 0.76 0.83 0.83 0.85 0.80 0.76 0.78 0.86 0.93 0.99 1.05 1.31 1.41 1.44 1.46 1.43 1.42 1.36
0.33 0.26 0.29 0.29 0.31 0.30 0.32 0.31 0.33 0.39 0.45 0.46 0.47 0.47 0.51 0.55 0.57 0.53 0.54 0.55 0.55 0.59 0.62 0.66 0.68 0.68 0.76 0.80 0.84 0.88 0.78 0.74 0.79 0.92 0.95 1.04 1.15 1.33 1.42 1.41 1.40 1.43 1.38 1.27
0.26 0.26 0.27 0.26 0.28 0.27 0.28 0.28 0.34 0.36 0.42 0.47 0.43 0.40 0.45 0.51 0.55 0.58 0.59 0.54 0.56 0.56 0.58 0.65 0.67 0.70 0.77 0.80 0.87 0.83 0.76 0.71 0.81 0.99 1.01 1.02 1.25 1.33 1.33 1.33 1.32 1.38 1.35 1.25
0.23 0.26 0.26 0.26 0.25 0.27 0.23 0.29 0.35 0.41 0.39 0.30 0.43 0.28 0.39 0.44 0.43 0.46 0.47 0.46 0.53 0.57 0.59 0.64 0.68 0.71 0.76 0.87 0.88 0.81 0.71 0.68 0.87 0.99 1.01 0.95 1.22 1.21 1.26 1.32 1.30 1.37 1.34 1.27
0.18 0.20 0.21 0.19 0.20 0.21 0.21 0.29 0.32 0.41 0.37 0.35 0.36 0.31 0.33 0.40 0.33 0.36 0.42 0.46 0.51 0.55 0.55 0.61 0.67 0.74 0.83 0.90 0.87 0.78 0.62 0.72 0.88 0.96 0.99 0.97 1.21 1.24 1.27 1.31 1.30 1.33 1.25 1.28
0.19 0.23 0.20 0.19 0.19 0.21 0.24 0.29 0.31 0.39 0.35 0.27 0.29 0.31 0.25 0.33 0.36 0.39 0.41 0.45 0.51 0.57 0.61 0.65 0.74 0.77 0.88 0.88 0.80 0.65 0.61 0.73 0.89 0.94 0.96 1.00 1.13 1.18 1.19 1.25 1.32 1.32 1.30 1.31
0.22 0.20 0.22 0.21 0.18 0.23 0.27 0.27 0.24 0.24 0.24 0.21 0.32 0.33 0.31 0.39 0.41 0.41 0.45 0.48 0.57 0.62 0.63 0.65 0.67 0.81 0.86 0.78 0.62 0.62 0.62 0.73 0.88 0.92 0.91 0.99 1.13 1.19 1.18 1.28 1.32 1.29 1.27 1.32
0.15 0.14 0.19 0.21 0.19 0.15 0.18 0.26 0.22 0.18 0.19 0.23 0.35 0.28 0.31 0.41 0.44 0.48 0.52 0.54 0.61 0.67 0.66 0.60 0.71 0.78 0.77 0.63 0.57 0.59 0.66 0.76 0.89 0.90 0.87 0.98 1.14 1.17 1.20 1.29 1.37 1.33 1.30 1.32
0.16 0.15 0.24 0.21 0.22 0.20 0.16 0.21 0.25 0.26 0.29 0.27 0.30 0.33 0.39 0.44 0.46 0.51 0.52 0.56 0.60 0.67 0.62 0.65 0.72 0.76 0.62 0.55 0.55 0.56 0.70 0.76 0.92 0.93 0.90 0.93 1.12 1.14 1.21 1.29 1.37 1.35 1.35 1.37
0.23 0.16 0.22 0.24 0.22 0.21 0.17 0.27 0.22 0.25 0.21 0.19 0.26 0.28 0.31 0.38 0.42 0.48 0.51 0.56 0.63 0.67 0.64 0.69 0.69 0.67 0.54 0.55 0.56 0.61 0.75 0.75 0.83 0.91 0.92 0.95 1.17 1.24 1.26 1.33 1.30 1.33 1.35 1.38
0.27 0.25 0.25 0.25 0.17 0.15 0.18 0.21 0.27 0.32 0.28 0.21 0.19 0.23 0.39 0.38 0.42 0.45 0.51 0.58 0.62 0.64 0.63 0.65 0.69 0.63 0.50 0.55 0.55 0.62 0.68 0.77 0.80 0.89 0.97 1.02 1.14 1.22 1.27 1.34 1.35 1.36 1.33 1.34
0.29 0.26 0.21 0.18 0.23 0.21 0.22 0.21 0.24 0.23 0.24 0.28 0.26 0.23 0.39 0.41 0.45 0.50 0.54 0.60 0.64 0.64 0.64 0.65 0.66 0.57 0.48 0.50 0.53 0.59 0.64 0.72 0.77 0.80 0.97 1.03 1.14 1.23 1.32 1.33 1.36 1.41 1.38 1.39
0.41 0.26 0.19 0.20 0.25 0.29 0.21 0.22 0.25 0.28 0.33 0.27 0.24 0.23 0.40 0.46 0.46 0.53 0.54 0.61 0.65 0.62 0.63 0.64 0.62 0.54 0.47 0.50 0.51 0.57 0.62 0.67 0.73 0.74 0.94 1.03 1.10 1.22 1.31 1.29 1.36 1.43 1.38 1.37
0.48 0.33 0.21 0.14 0.17 0.21 0.21 0.22 0.27 0.29 0.25 0.27 0.26 0.28 0.35 0.42 0.46 0.52 0.57 0.61 0.63 0.59 0.62 0.63 0.60 0.56 0.49 0.51 0.49 0.54 0.61 0.68 0.69 0.69 0.86 0.95 1.02 1.14 1.29 1.24 1.27 1.24 1.36 1.38
0.45 0.28 0.25 0.21 0.24 0.27 0.26 0.24 0.24 0.27 0.27 0.26 0.29 0.30 0.36 0.42 0.48 0.53 0.59 0.63 0.60 0.57 0.60 0.65 0.58 0.58 0.51 0.50 0.49 0.54 0.61 0.65 0.68 0.63 0.78 0.89 1.01 1.08 1.22 1.24 1.24 1.24 1.19 1.40
0.43 0.30 0.30 0.22 0.21 0.27 0.28 0.31 0.27 0.27 0.31 0.33 0.33 0.33 0.40 0.46 0.53 0.56 0.59 0.59 0.55 0.54 0.60 0.67 0.65 0.60 0.52 0.51 0.47 0.52 0.57 0.61 0.68 0.64 0.64 0.84 0.94 1.02 1.14 1.18 1.21 1.15 1.06 1.09
0.39 0.38 0.32 0.19 0.22 0.24 0.25 0.29 0.29 0.29 0.32 0.34 0.30 0.33 0.41 0.44 0.48 0.53 0.56 0.58 0.55 0.55 0.59 0.65 0.67 0.60 0.52 0.50 0.50 0.49 0.55 0.60 0.63 0.64 0.58 0.71 0.82 0.96 1.07 1.08 1.15 0.99 0.87 0.86
0.36 0.37 0.35 0.23 0.24 0.19 0.25 0.35 0.34 0.31 0.33 0.37 0.36 0.36 0.39 0.46 0.49 0.54 0.59 0.59 0.56 0.58 0.60 0.65 0.69 0.64 0.59 0.49 0.52 0.51 0.56 0.54 0.58 0.61 0.56 0.59 0.67 0.86 1.00 0.97 0.97 0.91 0.86 0.72
0.43 0.40 0.33 0.29 0.22 0.22 0.24 0.33 0.31 0.30 0.31 0.38 0.36 0.37 0.40 0.41 0.46 0.50 0.59 0.60 0.58 0.60 0.61 0.65 0.70 0.67 0.65 0.55 0.53 0.55 0.50 0.51 0.53 0.56 0.55 0.53 0.59 0.72 0.93 0.94 0.88 0.81 0.78 0.71
0.48 0.48 0.42 0.38 0.25 0.17 0.24 0.37 0.40 0.41 0.28 0.44 0.43 0.40 0.38 0.39 0.32 0.41 0.55 0.60 0.60 0.63 0.65 0.67 0.70 0.70 0.71 0.68 0.60 0.55 0.53 0.45 0.46 0.51 0.53 0.54 0.56 0.58 0.68 0.92 0.92 0.89 0.80 0.70
0.46 0.45 0.37 0.40 0.35 0.28 0.30 0.39 0.49 0.32 0.32 0.50 0.49 0.47 0.41 0.36 0.36 0.45 0.54 0.58 0.61 0.63 0.67 0.71 0.71 0.68 0.71 0.74 0.72 0.57 0.55 0.49 0.44 0.51 0.50 0.54 0.55 0.53 0.58 0.78 0.89 0.88 0.82 0.71
0.49 0.46 0.42 0.43 0.36 0.28 0.49 0.40 0.42 0.52 0.50 0.49 0.53 0.52 0.43 0.41 0.44 0.43 0.49 0.54 0.58 0.61 0.67 0.68 0.68 0.70 0.73 0.73 0.74 0.67 0.55 0.57 0.50 0.49 0.46 0.51 0.55 0.55 0.54 0.57 0.65 0.74 0.75 0.69
0.45 0.54 0.50 0.53 0.52 0.64 0.62 0.53 0.61 0.66 0.54 0.48 0.52 0.52 0.46 0.43 0.44 0.45 0.47 0.51 0.55 0.59 0.64 0.68 0.67 0.70 0.74 0.74 0.73 0.68 0.61 0.60 0.55 0.47 0.43 0.48 0.54 0.56 0.58 0.52 0.54 0.58 0.61 0.59
0.56 0.64 0.55 0.57 0.67 0.65 0.64 0.58 0.60 0.63 0.66 0.60 0.51 0.51 0.48 0.41 0.43 0.44 0.46 0.49 0.52 0.59 0.62 0.68 0.70 0.68 0.70 0.76 0.73 0.71 0.66 0.61 0.55 0.48 0.44 0.46 0.51 0.54 0.59 0.59 0.57 0.53 0.54 0.51
0.56 0.61 0.59 0.62 0.67 0.66 0.65 0.60 0.58 0.64 0.72 0.70 0.62 0.53 0.49 0.47 0.44 0.44 0.45 0.48 0.52 0.57 0.62 0.68 0.68 0.67 0.71 0.78 0.77 0.75 0.73 0.64 0.53 0.51 0.46 0.46 0.49 0.53 0.56 0.59 0.59 0.52 0.54 0.52
0.60 0.56 0.54 0.53 0.66 0.65 0.64 0.64 0.65 0.64 0.68 0.76 0.71 0.61 0.59 0.55 0.48 0.47 0.47 0.51 0.56 0.59 0.64 0.69 0.71 0.70 0.74 0.78 0.79 0.75 0.75 0.68 0.59 0.52 0.50 0.47 0.48 0.51 0.54 0.55 0.56 0.61 0.58 0.56
Wind_Speed
30 29 27 28 29 26 22 18 19 22 20 16 17 21 21 18 14 15 17 17 18 15 15 14 14 15 13 14 15 16 16 16 17 16 14 14 16 17 17 16 16 15 13 9
29 37 31 28 25 24 23 22 23 22 22 18 19 23 19 17 16 16 17 17 16 15 13 12 12 13 13 13 14 15 14 14 14 14 13 14 17 16 16 13 14 13 8 4
37 28 31 30 27 25 25 25 23 22 19 19 18 19 18 15 15 17 17 18 17 15 13 12 13 12 12 13 13 13 12 13 12 12 12 14 15 15 13 12 14 11 6 2
35 35 30 31 30 27 27 26 24 23 20 17 13 14 14 12 13 13 17 15 13 12 11 12 11 11 11 12 12 11 10 11 11 10 10 12 14 14 12 12 12 9 5 1
32 32 35 33 34 31 27 23 23 21 21 17 23 13 15 13 15 17 15 13 10 10 9 10 10 10 10 10 10 8 9 9 9 8 9 12 13 12 11 11 10 8 4 2
36 28 34 37 32 32 27 21 20 20 19 20 21 14 18 13 12 11 8 8 6 6 6 7 9 8 8 8 7 7 8 8 7 7 8 10 10 10 12 12 9 7 4 1
31 35 31 27 32 32 27 22 17 16 19 17 17 15 17 13 12 11 9 7 5 4 5 7 8 7 7 7 6 6 6 7 6 5 7 7 8 10 12 11 8 7 3 3
27 25 34 32 32 32 34 27 19 17 14 13 16 15 14 14 15 13 11 8 5 5 5 7 7 7 7 5 4 5 5 5 4 4 5 6 7 10 11 12 8 6 4 5
28 29 19 33 30 31 27 31 26 17 15 10 14 13 11 10 7 7 8 7 6 6 6 6 6 5 5 4 4 4 3 3 2 3 4 5 7 9 10 12 7 8 5 5
21 20 28 19 29 34 33 19 23 20 19 17 13 12 12 9 10 9 9 7 6 6 5 6 6 5 5 4 3 3 2 2 2 2 3 4 6 8 10 10 8 8 7 7
33 17 12 27 29 35 27 33 24 22 19 17 15 17 15 15 14 13 12 8 7 6 6 6 6 5 5 4 2 1 1 0 1 2 2 4 6 7 9 8 7 8 9 10
43 26 22 26 19 31 31 26 32 24 20 19 16 17 13 14 18 15 11 9 7 6 6 6 6 5 4 5 2 0 0 2 2 2 3 4 6 8 10 11 9 9 9 10
27 38 25 19 22 24 35 34 30 25 18 21 18 16 13 9 15 14 12 9 8 5 6 6 7 5 5 5 4 1 1 2 2 3 4 5 6 8 9 12 13 12 11 12
27 32 43 34 28 27 26 34 31 28 24 19 23 15 15 15 15 13 12 10 8 7 8 7 8 6 6 5 5 3 2 3 4 4 5 5 6 8 9 9 12 14 13 12
22 33 39 43 31 24 26 31 34 32 28 26 20 20 17 18 18 16 14 11 9 8 9 8 9 8 7 6 6 4 3 4 5 5 6 6 6 7 8 9 9 11 12 12
21 28 32 38 42 36 29 25 36 34 27 21 22 20 20 21 19 16 15 13 12 11 11 9 9 10 8 8 7 6 5 5 6 6 6 6 7 8 8 8 10 11 11 12
24 24 25 38 38 36 35 35 29 33 31 25 22 21 20 21 20 18 18 16 14 12 11 11 10 11 10 9 8 8 7 6 7 6 7 7 8 8 8 10 11 12 12 12
30 25 26 30 29 32 34 33 32 31 33 31 24 23 25 23 22 20 20 18 15 14 12 11 10 11 11 10 10 9 8 8 7 7 7 8 9 9 10 10 11 12 12 12
37 30 26 26 35 29 33 31 33 28 31 33 30 25 25 24 21 20 23 20 17 16 14 13 12 13 12 12 11 10 9 9 9 8 8 9 9 10 10 10 10 11 11 12
33 34 28 23 26 34 30 31 28 25 27 31 29 27 27 23 24 21 23 23 19 17 15 14 13 13 14 14 13 12 10 10 9 10 9 10 10 11 11 11 10 10 10 10
26 28 32 25 23 25 28 30 25 30 28 28 32 28 26 27 24 23 23 23 21 19 17 16 15 15 15 16 15 14 13 12 11 11 11 11 11 11 11 11 10 10 9 9
23 22 25 26 23 21 16 26 23 19 23 27 30 30 26 26 25 24 23 23 22 20 19 18 16 15 15 17 17 15 15 14 13 12 12 13 12 11 11 11 11 10 9 9
22 20 23 23 19 18 19 20 21 19 21 23 30 30 27 26 25 23 22 23 23 22 21 20 18 16 16 18 19 16 17 17 15 14 13 14 14 13 12 11 11 10 10 11
20 24 25 21 23 16 15 15 16 17 18 20 25 30 29 26 26 25 23 23 23 23 22 22 19 18 17 18 19 18 18 18 17 15 15 14 15 14 13 12 11 11 11 11
17 21 22 25 22 19 17 14 14 15 17 18 22 25 29 29 27 26 24 24 24 24 25 24 21 19 19 19 20 20 19 18 18 17 16 16 15 16 14 13 13 12 13 13
16 20 24 25 22 23 21 18 17 17 17 17 19 22 24 24 27 27 26 25 25 26 26 24 22 20 20 21 21 21 21 20 19 17 17 17 17 16 15 15 13 13 13 14
Wind_Direction
226 230 230 228 233 242 248 247 248 248 246 250 252 265 268 270 263 259 267 276 279 277 283 267 265 259 269 279 292 299 304 309 315 319 321 324 328 325 323 321 324 325 312 295
225 230 230 236 236 237 239 245 249 254 250 250 260 270 266 264 260 255 267 278 282 274 278 265 263 260 265 279 291 300 302 307 314 317 320 326 330 330 329 331 332 333 326 303
225 234 230 229 233 232 236 236 244 243 250 250 259 267 270 268 261 263 272 280 278 261 264 259 259 254 265 281 291 297 299 308 311 316 323 333 338 339 339 338 340 338 338 319
235 229 225 227 231 230 237 234 240 243 245 249 232 259 269 258 259 266 279 280 273 261 259 255 251 252 267 282 291 297 300 309 310 314 324 335 339 343 344 342 350 353 353 4
229 221 226 230 229 228 237 234 238 242 242 244 253 254 259 262 270 278 273 274 265 264 257 243 236 251 269 280 290 293 304 310 310 315 326 336 339 347 353 351 351 357 7 24
229 231 227 232 230 227 231 236 236 239 240 242 240 240 264 249 260 273 272 261 253 264 270 241 236 253 270 280 285 295 306 311 314 320 332 343 353 2 359 353 355 0 2 22
226 227 227 222 221 222 217 216 225 234 226 233 231 239 243 255 258 255 257 248 248 253 267 231 236 249 267 277 280 297 306 312 316 329 342 354 5 4 1 1 359 358 29 70
218 220 218 217 217 214 218 212 215 219 223 229 234 227 240 246 266 252 231 225 226 253 273 227 230 244 266 260 268 299 306 316 320 339 350 359 6 7 7 6 8 23 76 80
212 222 219 216 215 205 210 220 217 225 229 229 229 239 252 245 247 197 204 210 226 260 262 224 226 250 252 240 260 300 303 320 325 332 356 360 2 10 12 10 36 55 81 93
217 217 222 216 208 215 215 209 208 219 220 227 235 224 226 217 211 207 208 222 235 254 245 223 226 248 235 227 248 300 292 325 343 7 13 14 17 19 16 29 62 66 76 89
218 213 222 206 206 206 204 214 214 215 218 219 225 233 229 230 220 212 212 221 227 236 225 218 223 225 218 211 226 314 285 69 53 38 47 35 32 31 32 46 71 76 83 88
210 213 221 220 216 211 211 209 213 219 219 221 220 233 237 240 216 205 210 216 220 232 215 208 197 201 197 199 203 337 90 156 90 58 74 62 60 54 55 64 82 85 90 93
210 213 218 225 212 212 209 211 212 214 216 217 214 228 225 204 189 204 198 208 214 218 207 201 195 197 191 192 190 165 122 154 130 88 96 91 84 73 85 73 77 84 95 101
214 211 210 211 213 204 207 210 209 210 214 213 215 213 214 211 209 202 203 202 206 212 200 200 199 197 188 186 185 174 128 150 142 116 113 108 104 93 92 89 83 81 91 102
216 215 212 214 217 210 212 212 210 211 212 213 210 210 216 208 199 201 203 200 199 204 199 201 199 196 190 184 184 176 145 146 146 128 125 120 118 111 104 96 95 87 92 93
217 217 216 214 216 219 221 222 212 213 212 211 206 218 216 207 204 203 204 201 204 204 205 204 202 197 193 190 183 180 161 143 150 141 132 126 128 123 115 104 96 104 95 92
216 214 215 213 211 217 224 220 214 211 211 206 209 213 206 206 206 209 209 206 206 208 205 206 206 199 196 192 186 182 174 153 150 149 144 136 137 133 126 117 109 106 100 98
216 213 212 213 202 213 221 212 215 215 212 209 213 209 207 209 217 218 214 208 211 211 209 210 206 202 199 193 189 182 175 169 158 153 149 145 142 140 131 124 119 112 105 101
210 207 209 209 206 217 218 210 209 210 215 212 211 212 212 213 218 224 217 214 214 211 213 211 207 203 199 193 190 184 181 176 172 164 158 156 152 150 144 135 131 123 114 108
202 206 204 210 203 213 215 206 207 207 218 212 210 213 212 212 216 223 214 214 215 212 214 212 211 206 204 200 193 189 187 183 180 176 169 163 158 159 153 148 140 135 127 118
200 203 207 210 213 217 213 204 203 208 219 211 213 212 212 214 217 217 213 215 216 214 215 213 209 209 208 201 198 197 194 192 187 181 178 172 167 165 163 158 154 147 142 133
201 205 202 204 209 204 222 204 206 226 224 214 209 207 208 211 216 214 215 215 216 217 212 209 209 211 208 203 202 201 201 197 190 185 183 182 178 172 171 170 168 163 157 153
196 200 206 203 201 219 208 195 214 219 218 215 210 211 210 208 210 211 213 215 217 213 211 210 211 211 210 207 204 205 203 197 193 190 188 187 185 184 181 177 178 175 171 167
203 211 205 213 199 221 204 205 214 218 224 224 216 209 212 210 212 214 216 218 218 214 211 208 209 213 209 208 205 203 198 197 196 195 193 192 191 190 189 189 186 186 185 182
205 205 205 209 209 213 203 211 215 221 222 222 219 214 211 212 214 214 218 220 219 214 209 206 210 210 210 208 204 201 199 198 199 200 200 197 196 196 195 196 195 195 196 195
206 203 199 203 214 213 222 226 222 224 224 220 218 216 214 215 219 219 220 218 215 210 207 209 209 211 212 208 205 204 203 203 202 203 205 205 203 202 203 203 204 206 207 205